Lid_Strength_Index
-0 -0 -1 -1 -1 -1 -1 -1 -1 -1 -1 -1 -1 -1 -2 -2 -2 -2 -2 -2 -2 -2 -2 -2 -2 -2 -1 -2 -1 -2 3 3
-0 0 0 0 0 -1 -1 -1 -1 -1 -1 -1 -1 -1 -2 -2 -2 -2 -2 -2 -2 -2 -2 -2 -2 -2 -2 -2 -2 -1 3 3
-0 0 0 0 1 -0 -1 -1 -1 -1 -1 -1 -0 0 0 -0 -1 -2 -2 -2 -2 -1 -2 -2 -2 -2 -1 -1 -1 2 2 2
1 1 0 1 -0 1 1 -0 0 0 0 0 0 1 1 -0 -1 -1 -1 -1 -2 -1 -1 -2 -1 1 2 1 3 2 3 3
1 1 1 0 0 1 0 1 0 1 1 1 1 1 1 1 1 0 0 -1 0 0 1 2 2 2 2 2 2 2 0 0
1 1 0 0 0 0 1 0 1 1 2 2 1 1 2 1 1 1 2 2 1 1 1 1 1 1 2 4 2 1 2 3
1 0 0 0 0 1 1 1 2 3 3 3 3 2 2 3 2 1 3 3 3 3 3 3 4 6 6 6 3 4 5 6
1 0 0 0 1 1 1 2 4 4 4 4 3 3 3 4 4 5 6 6 5 6 6 6 7 7 6 1 3 4 5 6
2 1 1 2 3 2 4 4 5 6 6 5 4 4 5 6 7 7 8 7 8 7 7 7 8 7 7 6 7 7 8 8
2 2 4 5 6 6 6 7 7 7 7 6 5 6 6 7 8 8 8 8 7 8 8 9 9 9 8 7 7 8 8 8
4 4 6 7 8 8 8 8 8 8 8 8 6 6 7 8 8 8 8 8 9 9 9 10 9 8 6 7 7 7 7 6
4 6 8 8 8 8 9 10 10 9 9 8 8 8 8 8 9 9 9 9 10 10 9 9 9 7 6 7 7 7 8 8
6 7 9 8 9 10 10 11 10 10 9 8 8 9 9 9 9 9 10 10 10 9 10 9 9 8 7 8 8 8 9 9
6 6 8 7 8 9 10 10 11 10 9 9 8 9 9 9 9 10 10 10 9 9 10 10 10 9 9 9 10 9 9 10
7 7 7 7 8 9 10 11 11 11 10 10 10 9 9 9 9 10 10 10 10 10 11 11 10 10 9 9 11 11 10 9
7 7 7 7 8 9 10 11 11 11 10 10 10 9 9 9 10 10 10 9 10 10 10 11 10 11 10 9 11 10 11 12
7 7 7 7 8 9 11 11 12 11 11 10 9 9 9 9 10 9 10 10 11 11 11 11 11 11 10 11 12 12 12 13
7 7 7 8 8 9 10 12 12 11 11 10 10 10 10 10 9 10 10 10 11 11 11 11 11 11 11 11 12 13 13 14
7 7 8 8 8 9 10 11 11 11 9 10 10 10 11 10 10 10 11 11 11 11 12 11 11 11 11 11 11 11 11 12
7 7 8 8 9 10 10 10 10 9 9 9 10 9 9 10 10 10 10 10 11 11 11 11 11 11 11 11 11 11 11 11